SCP
0 0 0 0 0 0 0 0 0 0 0 0 0 0 0 0 0 0 0 0 0 0 0 0 0 0 0 0 0 0 0 0 0 0 0 0 0 0
0 0 0 0 0 0 0 0 0 0 0 0 0 0 0 0 0 0 0 0 0 0 0 0 0 0 0 0 0 0 0 0 0 0 0 0 0 0
0 0 0 0 0 0 0 0 0 0 0 0 0 0 0 0 0 0 0 0 0 0 0 0 0 0 0 0 0 0 0 0 0 0 0 0 0 0
0 0 0 0 0 0 0 0 0 0 0 0 0 0 0 0 0 0 0 0 0 0 0 0 0 0 0 0 0 0 0 0 0 0 0 0 0 0
0 0 0 0 0 0 0 0 0 0 0 0 0 0 0 0 0 0 0 0 0 0 0 0 0 0 0 0 0 0 0 0 0 0 0 0 0 0
0 0 0 0 0 0 0 0 0 0 0 0 0 0 0 0 0 0 0 0 0 0 0 0 0 0 0 0 0 0 0 0 0 0 0 0 0 0
0 0 0 0 0 0 0 0 0 0 0 0 0 0 0 0 0 0 0 0 0 0 0 0 0 0 0 0 0 0 0 0 0 0 0 0 0 0
0 0 0 0 0 0 0 0 0 0 0 0 0 0 0 0 0 0 0 0 0 0 0 0 0 0 0 0 0 0 0 0 0 0 0 0 0 0
0 0 0 0 0 0 0 0 0 0 0 0 0 0 0 0 0 0 0 0 0 0 0 0 0 0 0 0 0 0 0 0 0 0 0 0 0 0
0 0 0 0 0 0 0 0 0 0 0 0 0 0 0 0 0 0 0 0 0 0 0 0 0 0 0 0 0 0 0 0 0 0 0 0 0 0
0 0 0 0 0 0 0 0 0 0 0 0 0 0 0 0 0 0 0 0 0 0 0 0 0 0 0 0 0 0 0 0 0 0 0 0 0 0
0 0 0 0 0 0 0 0 0 0 0 0 0 0 0 0 0 0 0 0 0 0 0 0 0 0 0 0 0 0 0 0 0 0 0 0 0 0
0 0 0 0 0 0 0 0 0 0 0 0 0 0 0 0 0 0 0 0 0 0 0 0 0 0 0 0 0 0 0 0 0 0 0 0 0 0
0 0 0 0 0 0 0 0 0 0 0 0 0 0 0 0 0 0 0 0 0 0 0 0 0 0 0 0 0 0 0 0 0 0 0 0 0 0
0 0 0 0 0 0 0 0 0 0 0 0 0 0 0 0 0 0 0 0 0 0 0 0 0 0 0 0 0 0 0 0 0 0 0 0 0 0
0 0 0 0 0 0 0 0 0 0 0 0 0 0 0 0 0 0 0 0 0 0 0 0 0 0 0 0 0 0 0 0 0 0 0 0 0 0
0 0 0 0 0 0 0 0 0 0 0 0 0 0 0 0 0 0 0 0 0 0 0 0 0 0 0 0 0 0 0 0 0 0 0 0 0 0
0 0 0 0 0 0 0 0 0 0 0 0 0 0 0 0 0 0 0 0 0 0 0 0 0 0 0 0 0 0 0 0 0 0 0 0 0 0
0 0 0 0 0 0 0 0 0 0 0 0 0 0 0 0 0 0 0 0 0 0 0 0 0 0 0 0 0 0 0 0 0 0 0 0 0 0
0 0 0 0 0 0 0 0 0 0 0 0 0 0 0 0 0 0 0 0 0 0 0 0 0 0 0 0 0 0 0 0 0 0 0 0 0 0
0 0 0 0 0 0 0 0 0 0 0 0 0 0 0 0 0 0 0 0 0 0 0 0 0 0 0 0 0 0 0 0 0 0 0 0 0 0
0 0 0 0 0 0 0 0 0 0 0 0 0 0 0 0 0 0 0 0 0 0 0 0 0 0 0 0 0 0 0 0 0 0 0 0 0 0
0 0 0 0 0 0 0 0 0 0 0 0 0 0 0 0 0 0 0 0 0 0 0 0 0 0 0 0 0 0 0 0 0 0 0 0 0 0
Wind_Speed
7 7 5 4 4 3 2 2 2 1 2 3 2 3 4 6 9 8 8 13 16 16 17 18 19 20 21 22 23 23 24 24 24 24 24 24 25 25
5 6 5 3 3 3 2 2 1 2 2 2 3 5 8 8 11 9 9 15 16 17 18 19 19 21 21 22 22 23 23 23 23 23 23 24 24 25
5 5 5 3 3 2 2 1 1 1 3 3 3 5 7 9 10 9 9 9 9 16 19 20 20 20 21 21 21 21 20 21 21 22 23 23 24 25
4 4 3 2 2 1 1 1 1 2 3 5 5 5 7 9 9 10 9 9 9 15 19 20 20 20 19 19 18 18 18 18 20 21 21 22 23 24
3 2 1 1 1 1 1 1 1 2 3 4 6 5 5 6 7 9 10 9 10 11 15 16 17 19 19 18 17 16 15 15 17 18 19 20 21 21
3 2 1 1 1 1 1 2 2 3 3 4 6 6 6 6 6 7 9 9 9 10 11 12 15 18 18 18 18 17 15 14 15 16 17 17 18 19
4 4 3 3 2 1 1 2 2 3 5 6 6 6 7 7 7 6 9 9 10 7 7 9 10 9 10 12 14 15 15 15 15 15 14 14 14 15
4 5 5 4 6 6 6 6 6 6 7 6 6 8 10 9 8 7 8 8 7 5 7 11 9 9 9 8 12 15 15 15 15 14 14 13 13 13
4 4 4 5 6 4 7 10 10 12 11 8 9 10 9 8 8 9 8 9 9 8 8 9 9 10 9 9 14 15 14 14 14 14 13 13 12 11
4 4 4 6 5 6 7 8 9 10 10 7 8 10 10 9 8 7 8 8 9 8 6 6 8 9 10 9 11 13 14 14 14 14 13 12 11 10
5 5 5 6 8 9 7 8 10 10 8 8 9 10 12 12 8 5 5 6 8 8 4 4 6 9 9 7 8 12 14 14 14 14 13 12 10 9
6 7 8 8 10 10 7 7 9 9 9 9 8 7 6 6 6 4 4 5 6 6 3 4 5 6 5 4 7 8 9 10 12 12 11 10 8 4
6 6 7 11 13 12 9 6 9 9 8 7 6 5 5 4 5 4 3 4 5 5 5 5 5 5 4 5 6 7 8 7 7 7 8 8 7 4
6 6 8 13 14 13 8 7 9 7 3 3 4 4 4 5 6 6 6 5 6 8 8 6 4 5 6 5 5 6 8 6 5 5 5 6 4 3
6 11 13 13 12 8 7 9 6 3 2 3 4 4 4 5 6 6 6 5 6 6 5 4 4 5 5 5 7 5 5 5 6 6 5 4 3 2
6 9 11 9 6 6 6 5 3 2 2 3 4 4 4 5 4 4 4 4 5 5 6 6 5 5 4 6 7 6 6 6 6 6 5 4 4 4
7 5 4 5 6 6 6 5 4 4 3 3 4 5 5 5 5 4 3 3 4 5 6 6 7 5 3 3 6 7 7 5 6 6 5 5 6 6
5 4 5 5 5 5 6 6 5 5 5 5 5 5 5 6 6 4 3 3 4 4 5 5 6 6 4 0 4 7 6 6 6 7 5 5 6 7
4 4 5 5 5 5 5 5 5 6 5 5 5 6 6 5 5 5 4 3 3 4 4 4 5 6 7 7 6 8 7 6 6 6 6 5 5 5
4 5 5 5 5 5 5 5 6 6 6 6 6 6 6 5 5 5 5 4 3 3 4 4 5 5 5 5 5 5 9 7 6 5 5 4 3 3
5 5 5 5 5 5 5 5 6 6 6 6 6 6 6 5 5 6 5 5 3 3 4 4 4 5 4 3 4 5 5 7 8 6 5 4 4 5
5 5 5 5 5 5 6 6 6 6 7 6 6 6 6 5 6 6 5 4 3 3 3 3 4 4 5 6 7 7 7 6 6 10 12 9 4 4
5 5 5 6 6 5 5 6 7 6 6 6 6 6 7 6 5 4 4 4 4 4 4 4 4 4 5 5 6 6 9 8 7 7 7 10 10 9
Wind_Direction
92 91 85 74 69 68 83 115 149 231 286 308 302 297 317 312 307 308 305 304 304 305 302 299 297 295 293 291 288 286 284 282 281 281 280 280 280 279
93 95 92 88 82 81 85 89 114 168 246 277 273 293 307 308 309 310 300 304 305 303 302 300 298 295 293 291 289 287 285 283 282 282 282 282 282 281
88 99 100 109 106 102 105 116 136 173 236 273 270 289 295 299 308 306 303 301 297 300 302 301 299 297 295 294 293 291 290 289 288 287 285 284 283 281
76 86 92 101 101 118 138 164 193 206 229 279 293 296 289 295 297 300 302 303 301 299 299 301 301 300 300 299 298 296 293 290 289 287 285 283 281 280
61 73 76 82 96 181 208 230 240 239 227 263 290 290 289 293 301 300 302 300 302 302 303 303 305 306 304 301 298 294 288 284 285 285 284 283 281 280
36 25 349 289 247 240 247 257 262 274 274 279 290 294 289 294 294 304 312 315 311 309 303 307 307 306 302 300 298 295 292 287 284 284 284 281 278 277
21 6 335 339 348 288 290 265 263 283 294 296 296 296 299 306 308 306 308 312 309 300 308 311 310 305 303 300 299 297 295 293 290 288 286 282 276 272
9 352 339 1 356 350 335 317 301 297 297 291 290 291 294 297 301 304 309 314 315 307 310 310 310 306 305 300 298 299 298 297 296 293 290 286 279 273
357 345 342 343 345 330 321 317 309 299 286 273 274 278 285 293 300 303 305 306 300 303 306 303 310 310 311 306 304 302 300 298 301 299 297 293 284 276
339 328 321 318 317 323 317 310 305 299 292 279 261 271 278 286 285 286 293 296 292 292 289 291 305 312 313 308 302 299 300 303 305 303 301 296 288 280
326 318 311 306 308 320 317 309 307 304 303 291 278 278 279 282 282 282 294 304 313 316 308 279 296 309 306 298 303 303 304 306 307 306 304 299 291 283
320 315 313 308 307 313 308 299 298 302 314 320 317 314 305 301 298 271 275 296 309 309 307 301 296 309 300 292 307 313 313 310 311 309 306 306 302 284
315 317 313 314 312 311 304 278 269 283 300 304 309 316 320 318 317 309 270 256 286 291 297 309 298 301 289 300 305 315 319 318 319 313 312 312 305 285
304 306 303 308 310 311 309 297 300 300 293 306 316 318 318 318 317 313 301 279 256 264 283 294 287 305 311 310 308 316 323 326 325 321 322 322 319 304
297 300 306 310 313 314 316 322 327 325 316 316 317 305 294 295 302 307 306 308 303 288 287 286 290 302 309 315 320 317 317 321 334 336 339 347 351 356
320 315 316 314 318 318 324 336 339 313 296 297 296 292 295 304 308 312 309 323 323 321 320 320 321 320 314 322 324 329 334 334 339 346 352 7 17 20
319 320 337 345 353 352 345 339 335 339 334 317 307 310 312 313 311 315 306 313 318 325 332 339 340 333 302 316 335 343 344 345 349 353 1 19 26 23
332 333 338 345 345 340 337 333 331 338 334 325 319 315 314 316 316 319 314 312 322 329 336 340 347 354 355 21 8 353 351 350 354 4 12 22 29 25
345 339 339 342 338 334 331 326 320 323 323 325 325 325 323 321 322 327 330 326 332 336 341 347 356 2 7 9 4 9 1 354 357 11 18 24 28 26
349 344 343 339 336 334 333 332 328 331 336 336 334 333 334 331 334 338 338 331 329 338 351 6 11 4 4 356 344 352 9 11 3 2 1 6 17 12
346 346 343 339 336 336 336 335 332 331 336 336 338 338 339 338 339 343 344 344 343 350 359 3 352 343 348 5 15 16 19 28 34 22 358 0 11 21
347 346 344 344 342 341 342 341 339 340 343 344 340 339 338 339 341 345 353 358 2 3 360 357 359 12 25 30 28 22 23 27 41 49 44 37 25 21
350 347 347 348 347 344 344 343 343 339 339 338 337 337 336 336 338 350 5 15 19 25 25 21 25 33 34 32 34 33 32 31 31 37 44 40 54 63